Temp_Advection
nan nan nan nan nan nan nan nan nan nan nan nan nan nan nan nan nan nan nan nan nan nan nan nan nan nan nan nan nan nan nan nan nan nan nan nan nan nan nan nan nan nan nan
nan -0 -1 -1 -1 -1 -1 -1 -1 -1 -1 -1 -1 -2 -2 -1 -1 -0 -1 -3 -2 -0 0 0 -0 -0 0 0 0 0 0 0 0 0 0 0 0 0 0 0 0 0 nan
nan -0 -0 -0 -1 -1 -1 -1 -1 -1 -1 -1 -1 -1 -1 -0 -1 -1 -1 -1 -2 -3 -1 -0 -0 0 -0 1 1 0 -0 0 0 0 0 0 0 0 0 1 0 0 nan
nan -0 -1 -1 -1 -1 -1 -1 -0 -0 -1 -2 -1 -1 -1 -0 -0 -0 -0 -0 -1 -1 -2 -3 -1 0 -0 -0 0 1 -0 -0 0 0 0 0 0 0 0 1 0 0 nan
nan -0 -1 -1 -1 -1 -1 -1 -0 -0 -1 -1 -1 -1 -0 -0 -0 -0 -0 -0 -0 -0 -1 -2 -3 -2 -0 -0 1 1 0 -0 -0 0 0 0 0 -0 0 0 0 0 nan
nan -0 -0 -1 -1 -1 -1 -1 -0 0 -0 -2 -2 -1 -0 -0 -0 -0 -0 0 0 -0 -1 -0 -1 -1 -2 -1 0 1 0 -0 -0 -0 0 0 -0 -1 -0 1 0 0 nan
nan -0 -0 -1 -1 -1 -1 -1 -0 0 0 -1 -2 -2 -0 0 0 -1 -0 0 0 -0 -0 -1 -1 -1 -0 -1 -2 -0 1 0 -1 -0 0 -0 -1 -0 0 1 1 1 nan
nan -0 -0 -0 -0 -0 -1 -1 -1 -0 0 -0 -1 -2 -2 -1 0 0 -0 -0 -0 -0 -1 -1 -0 -1 -1 -0 -0 -0 -1 -0 -0 -0 -0 -0 -0 0 0 0 1 1 nan
nan -0 -0 -0 -0 -0 -0 -1 -1 -1 0 -0 -0 -0 -1 -1 -3 -0 -1 -0 -0 -1 -1 -1 -1 -1 -1 -0 -0 -0 -0 -1 -1 -1 -0 -0 -0 0 0 0 0 1 nan
nan -0 -0 -0 -0 -0 -0 -0 -1 -1 -1 -0 -0 -0 -0 -0 -0 -2 -2 -1 -1 -1 -1 -1 -0 -1 -1 -1 -0 -0 -1 -1 -2 -1 -0 -1 -0 0 0 -0 0 1 nan
nan -0 -0 -0 -0 -0 -0 -0 -1 -1 -1 -1 -0 -0 -1 -1 -0 -1 -2 -2 -2 -1 -1 -1 -1 -0 -0 -0 -0 0 -0 -1 -1 -1 -1 -1 -0 -0 0 0 1 0 nan
nan -0 -0 -0 -0 -0 -0 -0 -0 -1 -0 -1 -0 -0 -0 -1 -1 -1 -2 -2 -3 -1 -0 -0 -1 -1 -1 -0 0 -0 -1 -1 -1 -1 -1 -1 -1 -1 -0 0 0 0 nan
nan -0 -0 -0 -0 -0 -0 -0 -0 -0 -0 -0 -0 -0 -0 -0 -0 -0 -1 -1 -2 -1 -0 -0 -1 -1 -2 -1 -1 -1 -1 -1 -2 -1 -1 -1 -1 -1 -1 -0 1 1 nan
nan -0 -0 -0 -0 -0 -0 -1 -0 0 -0 -0 -0 -0 0 0 0 -0 -0 -1 -2 -2 -2 -0 -1 -1 -2 -1 -1 -1 -1 -2 -2 -1 -1 -1 -1 -1 -1 0 1 -0 nan
nan -0 -0 -0 -0 -0 -0 -0 -0 0 -0 -0 -0 -0 0 -0 0 0 -0 -0 -1 -2 -3 -1 -1 -1 -2 -1 -1 -0 -1 -2 -2 -2 -1 -1 -1 -1 -1 0 1 -0 nan
nan -0 -0 0 -0 -0 -0 -0 0 0 0 0 0 0 0 -0 -0 0 0 -0 -0 -1 -1 -2 -1 -1 -1 -1 -1 -0 -1 -1 -2 -2 -2 -1 -1 -1 -0 0 0 -0 nan
nan -0 -0 -0 -0 -0 -0 -0 0 -0 0 0 0 1 0 0 -0 -0 -0 -0 -0 -0 -1 -1 -0 -1 -1 -1 -1 -1 -0 -1 -2 -2 -1 -1 -1 -0 -1 -0 1 0 nan
nan -0 -0 -0 -0 -0 -0 -0 -0 -0 -0 -0 0 0 -0 -0 -0 -0 -0 -0 -0 -0 -0 -1 -0 -0 -1 -1 -0 -1 -1 -1 -1 -2 -1 -1 -0 0 -0 0 -0 -0 nan
nan 0 -0 -0 -0 -0 -0 -0 -0 -0 -1 -1 -1 -1 -1 -1 -0 1 0 0 1 -0 -0 -0 -0 -0 -0 -1 -1 -1 -0 -1 -0 -1 -1 -0 -0 -0 0 1 1 0 nan
nan 0 -0 -0 -0 -0 -0 -0 -0 -1 -1 -1 -1 -1 -1 -0 -0 -0 0 0 1 -0 -1 -1 -1 -1 -1 0 -1 -1 -0 -0 -0 -0 -1 -0 -0 0 0 1 1 2 nan
nan 0 -0 -0 -0 -0 -0 -0 -0 -0 -0 -1 -1 -0 0 -0 -0 -1 0 -0 -1 -0 -1 -1 -1 -2 -1 -0 -0 -1 -1 -0 -1 -1 -1 -0 -1 0 1 0 0 1 nan
nan 0 -0 -0 -0 -0 -0 -0 -0 -0 -0 -1 -1 -0 -0 -0 -0 -0 -0 -0 -0 -0 -0 -0 -1 -1 -1 -1 -0 0 -1 -1 -0 -0 -0 -0 -1 -0 -1 -1 -0 1 nan
nan 0 -0 -1 -0 0 0 0 -0 -1 -1 -1 -0 -1 -1 -0 -0 -0 -1 -0 -0 -1 -0 -0 -0 1 1 -0 -0 -0 -0 -0 -0 -0 -0 -1 -0 -1 -1 -0 0 1 nan
nan 0 -0 -0 0 0 0 -0 -1 -0 -0 -0 -0 -0 -0 -1 -0 -1 -1 -0 -0 -0 -1 -0 0 1 1 0 0 -0 0 -0 -0 -0 -0 -0 -1 -1 -0 -0 -0 -0 nan
nan -0 -0 -0 -0 0 0 -0 -0 -0 -0 -0 0 -0 -0 0 0 -1 0 0 -0 -0 -0 -0 0 0 0 0 -0 -0 -1 -1 -0 -1 -1 -1 -1 -0 -0 -1 -1 -0 nan
nan nan nan nan nan nan nan nan nan nan nan nan nan nan nan nan nan nan nan nan nan nan nan nan nan nan nan nan nan nan nan nan nan nan nan nan nan nan nan nan nan nan nan
Wind_Speed
19 20 21 22 24 25 26 27 28 29 29 28 27 27 27 27 28 28 30 35 38 41 42 42 41 40 39 38 35 35 35 34 34 33 33 33 32 31 31 33 38 38 39
18 19 20 21 23 24 25 26 28 28 28 27 26 26 27 26 25 26 26 30 35 38 42 44 44 43 42 40 40 37 37 37 36 36 35 35 34 35 33 31 38 39 41
18 20 22 23 24 24 25 26 26 26 25 25 25 25 25 23 21 22 24 24 26 31 36 42 46 46 44 43 41 39 39 40 39 39 38 37 37 37 35 34 37 40 41
18 18 19 20 22 23 23 24 25 24 22 23 23 24 23 21 20 20 19 19 19 22 25 31 41 46 46 45 43 40 40 40 42 42 42 40 39 39 38 36 37 40 42
16 17 18 19 20 21 22 23 23 22 22 22 24 25 21 20 16 13 12 16 15 17 17 21 29 39 44 46 46 42 40 40 41 43 44 44 42 42 40 39 38 40 43
16 17 18 18 20 20 21 22 23 21 19 21 25 22 22 13 12 10 18 13 14 13 14 16 17 18 27 40 46 46 40 39 41 43 43 45 46 44 42 40 39 40 40
14 14 15 17 17 18 20 21 21 21 17 20 21 26 13 11 4 17 8 11 11 17 14 14 15 14 14 18 31 45 42 38 39 42 45 45 46 46 43 42 40 42 41
15 16 17 17 16 16 17 19 20 20 17 18 18 18 14 9 3 17 10 10 17 14 15 16 14 14 15 15 17 21 34 43 35 39 43 45 46 47 44 42 43 44 44
15 16 15 15 15 15 15 17 19 19 18 16 14 12 8 7 27 4 14 16 15 21 18 15 15 14 14 15 17 16 22 25 42 40 40 44 45 49 49 45 45 45 48
15 16 15 14 14 13 14 15 16 17 17 16 13 12 10 15 8 16 16 19 22 23 18 14 13 14 13 12 15 18 22 22 31 39 39 39 44 47 53 48 48 49 49
12 11 12 12 12 12 13 14 14 15 15 14 14 15 11 13 7 17 24 29 27 22 17 17 12 11 11 10 7 13 23 25 26 33 32 38 39 44 48 48 48 48 48
10 11 11 10 10 11 12 12 13 13 13 12 14 14 14 14 18 15 24 29 31 22 19 15 11 10 12 12 13 14 17 23 27 29 34 36 36 41 49 48 50 49 49
8 9 9 9 10 11 11 12 11 11 11 12 15 14 12 12 14 16 18 24 30 23 15 10 14 18 19 16 18 19 16 21 26 32 32 33 37 36 40 47 47 55 43
5 6 7 9 10 11 11 11 11 11 11 11 13 14 12 13 15 16 18 23 27 18 18 14 22 17 22 17 14 15 18 23 28 28 32 30 32 30 37 38 40 47 48
4 6 7 8 9 10 11 11 11 12 11 12 12 14 13 14 15 16 16 16 16 20 23 19 26 27 26 18 15 13 17 22 26 26 25 30 31 32 31 35 36 36 40
4 4 5 7 9 10 10 11 11 13 12 12 12 14 15 15 14 16 16 16 14 13 15 25 25 25 26 19 15 13 14 18 20 22 24 27 27 27 29 33 36 32 35
2 4 5 7 8 9 10 11 12 13 13 13 14 15 16 16 15 16 16 17 16 15 18 22 21 23 25 21 15 13 12 15 15 14 18 19 28 24 26 28 34 38 42
2 3 5 6 7 9 10 11 13 14 14 15 15 16 18 17 17 16 16 17 18 17 19 22 23 24 24 24 17 15 16 12 12 13 7 15 17 21 23 26 32 36 37
3 4 5 5 7 9 11 12 14 14 15 15 15 16 18 18 18 18 19 19 19 17 18 19 21 22 22 22 17 13 18 16 11 9 9 3 10 16 20 23 28 35 30
4 5 6 7 7 9 11 12 13 14 14 15 16 16 17 19 20 21 19 21 22 19 19 18 20 22 25 25 19 21 17 18 16 11 13 12 8 6 10 10 18 30 37
5 6 7 7 7 8 11 12 13 14 14 15 16 17 18 19 20 21 21 22 23 21 20 20 21 23 27 30 28 25 20 7 16 18 19 17 14 13 10 6 7 5 18
5 5 5 7 7 8 9 11 12 13 14 15 16 16 17 18 18 19 20 21 22 23 21 20 20 22 26 27 22 21 19 17 10 17 20 21 23 22 17 17 16 15 11
5 4 5 7 7 6 8 9 10 12 13 14 16 16 16 18 18 19 20 21 22 22 22 20 20 22 24 27 22 17 14 14 16 13 11 17 19 22 23 17 13 14 14
6 5 4 5 4 5 7 6 13 7 9 11 13 14 15 16 17 17 16 18 20 21 23 21 19 20 21 22 20 16 13 7 10 15 11 11 15 14 18 18 15 14 13
6 5 4 4 4 4 7 6 9 4 6 9 10 13 13 15 16 17 15 15 16 17 17 17 16 16 17 18 18 17 17 15 7 14 17 16 19 11 10 17 16 12 13
6 5 5 4 4 4 6 7 7 3 5 6 9 10 14 14 17 17 16 16 16 16 16 16 16 16 17 18 20 22 21 19 17 8 21 14 19 18 7 14 17 15 15
Wind_Direction
335 334 331 330 329 328 327 327 325 323 320 316 311 304 298 292 285 279 274 269 262 258 255 251 250 250 246 242 240 241 241 239 237 235 233 232 233 232 230 226 221 220 217
335 333 331 330 330 331 330 328 326 324 321 317 314 310 305 298 290 283 280 275 270 262 257 253 249 247 247 245 241 239 239 239 236 234 234 233 232 232 232 230 223 224 221
334 333 330 330 331 332 333 330 328 324 321 318 316 313 310 304 296 291 285 281 276 274 262 254 250 247 245 246 243 238 238 238 237 235 235 234 232 231 232 232 228 225 223
329 328 326 327 329 331 332 331 330 328 325 323 319 317 310 302 298 294 294 291 285 279 274 265 253 249 244 243 243 242 237 238 238 236 235 236 234 232 232 230 228 227 225
331 330 329 330 331 333 334 334 333 331 330 326 322 322 311 304 299 298 300 306 298 293 284 279 268 254 248 243 242 242 240 238 237 238 236 236 237 235 231 233 231 227 227
333 334 333 332 333 335 337 337 338 338 335 327 329 328 313 308 300 291 307 303 304 309 310 294 286 280 272 247 242 241 240 239 238 238 239 238 236 237 233 233 233 230 226
333 334 336 336 339 339 341 342 345 346 345 339 340 339 341 313 259 332 326 313 309 317 311 307 303 282 271 284 257 245 243 239 239 239 240 240 238 237 235 232 232 231 226
341 342 342 339 341 343 345 347 353 357 357 356 344 349 340 339 280 327 332 324 323 310 312 308 300 299 287 274 248 247 248 240 240 240 239 240 239 238 236 232 231 233 226
342 341 340 340 341 343 346 352 357 1 357 3 1 3 336 321 326 325 327 319 322 323 316 299 304 300 295 281 275 272 261 249 239 241 243 240 238 239 236 238 233 232 226
341 340 341 343 343 344 347 355 359 4 4 1 7 343 324 314 312 316 318 329 320 326 318 316 298 303 307 298 279 279 271 263 248 244 246 244 239 237 236 233 231 232 228
338 341 345 348 349 350 348 354 358 7 6 7 4 356 354 340 306 315 315 323 330 329 328 321 330 325 319 287 286 261 258 250 250 244 250 246 244 240 242 225 233 232 234
347 349 351 356 357 358 358 359 360 357 358 2 7 10 4 358 333 329 315 321 325 330 337 343 343 316 290 277 254 275 261 253 244 245 246 245 243 241 238 235 231 228 239
347 346 355 3 6 6 7 7 3 359 360 360 2 7 2 355 343 333 324 325 328 340 340 343 348 328 314 295 282 288 281 272 251 242 244 248 247 244 243 244 241 231 219
344 350 2 9 9 11 11 13 8 5 4 6 3 6 357 355 352 348 339 337 338 342 343 351 343 342 337 326 313 315 297 287 264 253 245 252 253 253 245 242 241 227 242
355 7 11 13 12 14 17 21 13 14 12 11 5 8 7 359 352 350 349 349 341 333 338 343 345 342 334 334 336 326 321 307 289 269 255 247 253 251 251 245 235 239 236
21 20 18 22 21 21 24 30 23 21 22 17 12 12 14 6 358 354 351 350 348 333 318 335 339 339 344 349 346 330 328 314 307 289 262 250 249 249 248 244 237 240 233
42 34 32 31 30 28 32 32 31 28 28 24 20 19 19 15 7 358 355 351 348 347 333 340 342 344 351 358 354 346 333 325 324 300 265 258 247 250 243 241 238 237 232
79 60 47 43 41 38 39 39 38 32 30 27 26 25 23 21 17 5 3 358 351 353 344 346 351 353 359 3 8 7 360 344 343 329 273 252 245 239 241 237 236 233 235
104 81 66 59 55 48 44 45 42 39 36 34 31 31 27 24 19 14 11 8 1 359 352 351 353 359 2 5 11 18 11 11 360 348 356 352 243 245 238 231 228 225 232
98 83 70 61 60 55 50 49 47 45 37 34 34 31 28 26 24 20 13 11 12 9 1 1 359 2 6 8 16 4 11 9 13 18 38 40 64 82 227 221 219 218 225
108 89 74 66 65 59 53 47 45 42 39 36 34 35 29 27 24 21 18 14 15 16 11 9 5 5 8 10 11 14 2 17 15 26 37 37 37 57 78 107 91 146 211
121 104 86 73 66 55 53 48 44 40 37 36 33 29 27 26 25 24 20 17 17 19 19 17 9 7 5 8 8 14 11 16 6 26 41 32 41 40 43 65 68 77 98
132 113 89 70 60 40 47 46 46 36 39 39 30 29 23 23 23 24 18 17 17 21 25 19 15 10 6 7 4 5 13 19 26 14 23 28 37 36 36 40 53 80 79
145 136 123 106 91 26 44 50 67 41 41 37 36 32 24 19 26 28 18 16 16 15 18 20 17 13 11 9 10 5 355 27 353 16 17 29 12 21 32 26 28 40 68
156 162 155 140 106 37 44 57 81 41 32 35 33 27 31 19 24 25 23 21 20 19 18 20 18 13 11 13 14 19 23 17 359 14 25 31 12 16 5 7 21 29 41
171 174 174 164 133 85 4 58 85 47 29 32 21 26 5 18 16 19 18 19 19 17 16 14 14 16 17 18 24 27 27 25 16 17 16 19 11 19 11 356 5 22 25
Height
1517 1515 1512 1510 1507 1504 1501 1498 1494 1490 1486 1483 1480 1477 1475 1473 1471 1469 1467 1466 1465 1466 1467 1468 1470 1472 1474 1476 1477 1480 1483 1484 1487 1490 1493 1496 1499 1501 1504 1506 1510 1513 1518
1516 1514 1511 1509 1506 1502 1499 1495 1490 1486 1483 1479 1476 1473 1469 1467 1464 1462 1460 1458 1456 1456 1457 1459 1460 1463 1465 1468 1470 1471 1475 1477 1480 1483 1486 1489 1492 1495 1497 1500 1503 1507 1512
1514 1513 1510 1507 1504 1500 1497 1493 1488 1484 1480 1476 1472 1468 1465 1462 1459 1456 1453 1451 1449 1448 1447 1449 1450 1453 1456 1458 1461 1463 1466 1469 1473 1476 1479 1481 1485 1487 1490 1493 1497 1500 1504
1513 1511 1509 1506 1503 1499 1495 1490 1486 1482 1477 1472 1468 1464 1461 1458 1455 1451 1449 1447 1445 1443 1440 1439 1440 1442 1445 1448 1452 1455 1458 1461 1464 1467 1471 1474 1477 1480 1483 1487 1489 1494 1497
1512 1510 1507 1504 1500 1497 1493 1489 1484 1479 1474 1470 1464 1460 1456 1453 1451 1450 1448 1445 1443 1439 1437 1435 1432 1432 1435 1439 1442 1446 1450 1453 1456 1459 1462 1466 1469 1473 1476 1481 1483 1486 1490
1510 1508 1506 1502 1500 1496 1492 1487 1482 1476 1473 1468 1461 1455 1451 1449 1449 1448 1445 1443 1440 1437 1436 1433 1430 1430 1428 1430 1433 1437 1441 1445 1448 1450 1454 1457 1460 1464 1467 1472 1476 1480 1483
1508 1505 1503 1500 1497 1494 1490 1486 1479 1475 1473 1466 1459 1452 1449 1449 1446 1445 1443 1441 1438 1436 1432 1430 1428 1427 1426 1425 1426 1430 1434 1436 1440 1442 1445 1448 1451 1453 1459 1463 1468 1473 1477
1506 1503 1500 1498 1495 1492 1488 1485 1479 1474 1471 1467 1462 1456 1451 1448 1447 1442 1441 1441 1435 1433 1429 1428 1425 1423 1422 1422 1422 1421 1424 1428 1430 1432 1434 1438 1443 1446 1450 1454 1460 1465 1470
1501 1498 1497 1497 1494 1491 1488 1484 1479 1474 1470 1468 1465 1465 1459 1455 1447 1443 1440 1438 1433 1430 1425 1423 1422 1420 1420 1419 1419 1420 1419 1420 1422 1425 1426 1428 1433 1437 1441 1446 1451 1456 1462
1500 1498 1496 1493 1493 1490 1488 1484 1479 1474 1471 1467 1466 1465 1464 1460 1453 1441 1437 1435 1431 1425 1424 1421 1418 1417 1417 1416 1417 1416 1415 1414 1414 1417 1418 1420 1424 1428 1430 1434 1438 1447 1452
1498 1498 1496 1493 1491 1489 1487 1483 1480 1475 1472 1469 1466 1462 1460 1457 1455 1450 1435 1429 1427 1424 1422 1417 1416 1415 1414 1411 1410 1409 1405 1405 1406 1408 1410 1412 1415 1418 1419 1414 1430 1439 1447
1499 1496 1494 1492 1491 1488 1486 1483 1480 1477 1474 1470 1466 1462 1460 1457 1453 1449 1441 1433 1427 1421 1419 1416 1412 1406 1406 1403 1401 1396 1397 1396 1398 1399 1402 1404 1406 1409 1412 1411 1420 1421 1432
1498 1496 1494 1492 1490 1488 1485 1483 1480 1478 1475 1471 1466 1462 1460 1458 1454 1450 1444 1436 1428 1422 1419 1415 1411 1408 1404 1401 1398 1396 1396 1390 1390 1391 1394 1396 1399 1402 1404 1406 1407 1410 1418
1497 1496 1494 1491 1490 1487 1485 1483 1480 1478 1475 1471 1468 1464 1461 1457 1454 1450 1444 1438 1428 1423 1420 1416 1411 1408 1402 1398 1396 1394 1391 1387 1385 1386 1389 1390 1392 1396 1397 1400 1405 1401 1415
1496 1495 1493 1491 1489 1487 1485 1483 1480 1477 1474 1471 1469 1464 1461 1458 1455 1451 1446 1442 1438 1430 1420 1417 1411 1406 1400 1395 1392 1390 1387 1384 1382 1381 1383 1385 1386 1389 1391 1393 1397 1403 1402
1495 1494 1493 1491 1488 1487 1485 1482 1480 1477 1474 1471 1469 1465 1461 1458 1456 1453 1447 1442 1440 1436 1430 1420 1413 1407 1399 1394 1391 1388 1385 1383 1379 1377 1377 1378 1378 1380 1384 1386 1389 1391 1393
1495 1494 1492 1490 1488 1487 1485 1482 1479 1477 1474 1471 1468 1465 1461 1458 1456 1453 1449 1444 1439 1435 1430 1422 1416 1408 1401 1395 1391 1387 1384 1381 1377 1373 1371 1371 1372 1373 1375 1378 1381 1385 1389
1494 1493 1491 1490 1488 1487 1485 1482 1479 1477 1474 1471 1468 1465 1462 1458 1455 1453 1449 1445 1440 1434 1429 1422 1417 1410 1403 1398 1393 1389 1385 1381 1377 1373 1369 1367 1366 1367 1368 1371 1373 1377 1380
1493 1492 1491 1490 1488 1487 1485 1483 1480 1478 1475 1473 1470 1466 1463 1460 1456 1452 1448 1443 1439 1436 1431 1426 1420 1414 1406 1399 1395 1392 1388 1383 1378 1374 1371 1365 1362 1361 1361 1362 1366 1370 1373
1492 1491 1490 1489 1488 1487 1485 1483 1481 1478 1476 1473 1470 1467 1464 1461 1457 1453 1449 1444 1439 1435 1431 1428 1422 1415 1409 1402 1398 1394 1390 1386 1381 1377 1373 1370 1364 1362 1358 1358 1359 1360 1364
1491 1491 1490 1489 1488 1487 1485 1483 1481 1479 1477 1474 1471 1468 1465 1461 1458 1454 1450 1446 1441 1436 1432 1428 1423 1418 1410 1403 1398 1396 1394 1390 1385 1381 1377 1373 1369 1364 1358 1359 1359 1358 1357
1491 1491 1490 1489 1488 1487 1486 1484 1482 1480 1477 1475 1472 1469 1466 1463 1460 1456 1452 1448 1443 1438 1433 1431 1428 1422 1416 1410 1406 1401 1398 1392 1389 1385 1382 1380 1375 1369 1364 1363 1364 1358 1356
1490 1490 1490 1489 1489 1488 1486 1484 1482 1481 1479 1476 1474 1471 1468 1464 1461 1457 1453 1450 1445 1441 1436 1433 1429 1424 1419 1413 1409 1405 1402 1399 1395 1390 1387 1384 1381 1379 1375 1373 1370 1364 1359
1490 1490 1490 1490 1491 1487 1486 1484 1482 1484 1482 1478 1475 1473 1470 1466 1462 1458 1457 1452 1448 1443 1438 1434 1431 1427 1423 1418 1413 1409 1405 1402 1399 1394 1390 1388 1386 1383 1381 1379 1373 1370 1364
1488 1488 1489 1488 1489 1488 1485 1484 1484 1485 1482 1478 1476 1472 1471 1468 1463 1460 1458 1454 1450 1446 1442 1438 1434 1430 1426 1421 1416 1411 1405 1404 1401 1396 1393 1391 1389 1386 1384 1382 1378 1376 1374
1486 1487 1487 1487 1486 1488 1484 1483 1482 1484 1480 1479 1476 1474 1470 1467 1464 1460 1458 1454 1451 1447 1443 1439 1436 1432 1428 1423 1418 1413 1409 1406 1402 1399 1396 1395 1392 1388 1388 1385 1381 1376 1374